Crosby, ND

5:08 PM CST on December 05, 2019 (GMT -0600)
Crosby

Weather History for KD50 - November, 2019

Change the Weather History Date:

Tuesday, November 19, 2019

  Actual Average (WUND) Record (WUND)
Temperature  
Mean Temperature 32 °F -  
Max Temperature 41 °F - - (-1)
Min Temperature 24 °F - - (-1)
Degree Days  
Heating Degree Days 32    
Moisture  
Dew Point 30 °F    
Average Humidity 85    
Maximum Humidity 100    
Minimum Humidity 57    
Precipitation  
Precipitation 0.00 in - - ()
Sea Level Pressure  
Sea Level Pressure 29.82 in    
Wind  
Wind Speed 8 mph (West)    
Max Wind Speed 18 mph    
Max Gust Speed 24 mph    
Visibility 10 miles    
Events Snow    
Averages and records for this station are not official NWS values.
T = Trace of Precipitation, MM = Missing Value Source: NWS Daily Summary

Daily Weather History Graph

Daily Weather History Graph

Search for Another Location

Airport or City:

Astronomy

Nov. 19, 2019 Rise Set
Actual Time 8:08 AM CST 5:08 PM CST
Civil Twilight 7:33 AM CST 5:43 PM CST
Nautical Twilight 6:54 AM CST 6:22 PM CST
Astronomical Twilight 6:17 AM CST 6:59 PM CST
Moon No Moon Rise 2:16 PM CST (11/19)
Length of Visible Light 10h 09m
Length of Day
8h 59m
Waning Gibbous, 51% of the Moon is Illuminated
Nov 19
Waning Gibbous
Nov 19
Last Quarter
Nov 26
New
Dec 4
First Quarter
Dec 11
Full

Hourly Weather History & Observations

Time (CST) Temp. Windchill Dew Point Humidity Pressure Visibility Wind Dir Wind Speed Gust Speed Precip Events Conditions
12:15 AM 37.4 °F 29.3 °F 33.8 °F 87% 29.78 in 10.0 mi NW 12.7 mph 20.7 mph N/A   Overcast
12:35 AM 37.4 °F 28.9 °F 33.8 °F 87% 29.78 in 10.0 mi NW 13.8 mph - N/A   Overcast
12:55 AM 37.4 °F 27.5 °F 32.0 °F 81% 29.79 in 10.0 mi NW 18.4 mph - N/A   Overcast
1:15 AM 37.4 °F 29.3 °F 32.0 °F 81% 29.79 in 10.0 mi NW 12.7 mph 24.2 mph N/A   Overcast
1:35 AM 37.4 °F 29.3 °F 32.0 °F 81% 29.79 in 10.0 mi NW 12.7 mph - N/A   Overcast
1:55 AM 35.6 °F 27.1 °F 32.0 °F 87% 29.78 in 10.0 mi NW 12.7 mph - N/A   Overcast
2:15 AM 35.6 °F 27.5 °F 32.0 °F 87% 29.79 in 10.0 mi WNW 11.5 mph - N/A   Overcast
2:35 AM 35.6 °F 28.6 °F 32.0 °F 87% 29.79 in 10.0 mi WNW 9.2 mph - N/A   Overcast
2:55 AM 32.0 °F 24.2 °F 30.2 °F 93% 29.78 in 10.0 mi WNW 9.2 mph - N/A   Mostly Cloudy
3:15 AM 32.0 °F 24.8 °F 30.2 °F 93% 29.79 in 10.0 mi WNW 8.1 mph - N/A   Clear
3:35 AM 30.2 °F 21.9 °F 30.2 °F 100% 29.78 in 10.0 mi West 9.2 mph - N/A   Clear
3:55 AM 30.2 °F 22.6 °F 30.2 °F 100% 29.79 in 10.0 mi West 8.1 mph - N/A   Clear
4:15 AM 30.2 °F 21.9 °F 30.2 °F 100% 29.78 in 10.0 mi West 9.2 mph - N/A   Scattered Clouds
4:35 AM 30.2 °F 22.6 °F 30.2 °F 100% 29.78 in 10.0 mi West 8.1 mph - N/A   Scattered Clouds
4:55 AM 30.2 °F 22.6 °F 30.2 °F 100% 29.78 in 10.0 mi West 8.1 mph - N/A   Clear
5:15 AM 30.2 °F 22.6 °F 30.2 °F 100% 29.78 in 10.0 mi West 8.1 mph - N/A   Clear
5:55 AM - - - N/A% 29.80 in 10.0 mi West 9.2 mph - N/A   Clear
6:15 AM 28.4 °F 19.7 °F 28.4 °F 100% 29.80 in 10.0 mi West 9.2 mph - N/A   Clear
6:35 AM 28.4 °F 19.7 °F 28.4 °F 100% 29.80 in 10.0 mi West 9.2 mph - N/A   Clear
6:55 AM 26.6 °F 18.2 °F 26.6 °F 100% 29.80 in 10.0 mi West 8.1 mph - N/A   Clear
7:15 AM 26.6 °F 20.0 °F 26.6 °F 100% 29.80 in 10.0 mi SW 5.8 mph - N/A   Clear
7:35 AM 26.6 °F 18.2 °F 26.6 °F 100% 29.81 in 10.0 mi WSW 8.1 mph - N/A   Clear
7:55 AM 24.8 °F 16.9 °F 24.8 °F 100% 29.81 in 10.0 mi WSW 6.9 mph - N/A   Clear
8:15 AM 24.8 °F 16.9 °F 24.8 °F 100% 29.82 in 10.0 mi WSW 6.9 mph - N/A   Clear
8:35 AM 26.6 °F 19.1 °F 26.6 °F 100% 29.83 in 10.0 mi WSW 6.9 mph - N/A   Clear
8:55 AM 28.4 °F 21.2 °F 28.4 °F 100% 29.84 in 10.0 mi West 6.9 mph - N/A   Clear
9:15 AM 30.2 °F 24.3 °F 30.2 °F 100% 29.83 in 10.0 mi WSW 5.8 mph - N/A   Clear
9:35 AM 30.2 °F 24.3 °F 30.2 °F 100% 29.84 in 10.0 mi West 5.8 mph - N/A   Clear
9:55 AM 32.0 °F 26.4 °F 30.2 °F 93% 29.84 in 10.0 mi WSW 5.8 mph - N/A   Clear
10:15 AM 35.6 °F 31.7 °F 30.2 °F 81% 29.83 in 10.0 mi WSW 4.6 mph - N/A   Clear
10:35 AM 35.6 °F 31.7 °F 32.0 °F 87% 29.83 in 10.0 mi West 4.6 mph - N/A   Clear
10:55 AM 37.4 °F - 30.2 °F 75% 29.83 in 10.0 mi Calm Calm - N/A   Clear
11:15 AM 39.2 °F - 28.4 °F 65% 29.83 in 10.0 mi Calm Calm - N/A   Clear
11:55 AM 41.0 °F - 28.4 °F 61% 29.82 in 10.0 mi Calm Calm - N/A   Clear
12:15 PM 41.0 °F - 26.6 °F 57% 29.81 in 10.0 mi Calm Calm - N/A   Clear
12:35 PM 41.0 °F - 28.4 °F 61% 29.80 in 10.0 mi Calm Calm - N/A   Clear
1:15 PM 41.0 °F - 26.6 °F 57% 29.80 in 10.0 mi Calm Calm - N/A   Clear
1:35 PM 41.0 °F - 26.6 °F 57% 29.80 in 10.0 mi Calm Calm - N/A   Clear
1:55 PM 41.0 °F - 26.6 °F 57% 29.80 in 10.0 mi Calm Calm - N/A   Clear
2:15 PM 41.0 °F - 26.6 °F 57% 29.80 in 10.0 mi Calm Calm - N/A   Clear
2:35 PM 41.0 °F - 26.6 °F 57% 29.80 in 10.0 mi Calm Calm - N/A   Clear
2:55 PM 41.0 °F - 26.6 °F 57% 29.80 in 10.0 mi Calm Calm - N/A   Clear
3:15 PM 39.2 °F 35.9 °F 28.4 °F 65% 29.80 in 9.0 mi NNE 4.6 mph - N/A   Partly Cloudy
3:35 PM 39.2 °F 37.0 °F 28.4 °F 65% 29.80 in 10.0 mi ENE 3.5 mph - N/A   Mostly Cloudy
3:55 PM 39.2 °F 37.0 °F 28.4 °F 65% 29.80 in 10.0 mi SE 3.5 mph - N/A   Overcast
4:15 PM 37.4 °F - 28.4 °F 70% 29.82 in 10.0 mi Calm Calm - N/A   Overcast
4:35 PM 37.4 °F 34.9 °F 28.4 °F 70% 29.82 in 10.0 mi SE 3.5 mph - N/A   Overcast
4:55 PM 35.6 °F 32.8 °F 30.2 °F 81% 29.82 in 10.0 mi East 3.5 mph - N/A   Overcast
5:35 PM 33.8 °F 28.6 °F 28.4 °F 81% 29.82 in 10.0 mi ESE 5.8 mph - N/A   Overcast
5:55 PM 33.8 °F 28.6 °F 28.4 °F 81% 29.82 in 10.0 mi ESE 5.8 mph - N/A   Overcast
6:15 PM 32.0 °F 26.4 °F 28.4 °F 87% 29.83 in 10.0 mi SE 5.8 mph - N/A   Overcast
6:35 PM 33.8 °F 27.7 °F 30.2 °F 87% 29.84 in 10.0 mi SSE 6.9 mph - N/A   Overcast
6:55 PM 33.8 °F 28.6 °F 30.2 °F 87% 29.85 in 10.0 mi SSE 5.8 mph - N/A   Overcast
7:15 PM 33.8 °F 29.6 °F 30.2 °F 87% 29.85 in 10.0 mi SE 4.6 mph - N/A   Overcast
7:35 PM 32.0 °F - 30.2 °F 93% 29.85 in 10.0 mi Calm Calm - N/A   Overcast
7:55 PM 33.8 °F - 30.2 °F 87% 29.86 in 10.0 mi Calm Calm - N/A   Overcast
8:15 PM 32.0 °F - 30.2 °F 93% 29.86 in 10.0 mi Calm Calm - N/A   Overcast
8:35 PM 33.8 °F - 30.2 °F 87% 29.86 in 10.0 mi Calm Calm - N/A   Overcast
8:55 PM 33.8 °F - 30.2 °F 87% 29.86 in 10.0 mi Calm Calm - N/A   Overcast
9:15 PM 33.8 °F - 30.2 °F 87% 29.87 in 10.0 mi Calm Calm - N/A   Overcast
9:35 PM 33.8 °F - 30.2 °F 87% 29.87 in 10.0 mi Calm Calm - N/A   Overcast
9:55 PM 33.8 °F 28.6 °F 32.0 °F 93% 29.86 in 10.0 mi SSE 5.8 mph - N/A   Overcast
10:15 PM 33.8 °F 28.6 °F 32.0 °F 93% 29.87 in 10.0 mi SSE 5.8 mph - N/A   Overcast
10:35 PM 33.8 °F 29.6 °F 33.8 °F 100% 29.87 in 10.0 mi SSE 4.6 mph - N/A   Overcast
10:55 PM 33.8 °F - 33.8 °F 100% 29.87 in 5.0 mi Calm Calm - N/A Snow Light Snow
11:15 PM 32.0 °F 28.7 °F 32.0 °F 100% 29.87 in 6.0 mi NNW 3.5 mph - N/A Snow Light Snow
11:35 PM 32.0 °F 27.5 °F 32.0 °F 100% 29.87 in 1.8 mi NNW 4.6 mph - N/A Snow Light Snow
11:55 PM 32.0 °F 28.7 °F 32.0 °F 100% 29.88 in 2.0 mi NNW 3.5 mph - N/A Snow Light Snow